Showing default

COSMOS 1562, 15001

Orbit data source: Space-Track

COSMOS 1562, 15001 is a payload satellite owned by GUKOS (CIS) in LEO that was launched on Mon, 28 May 1984 UTC via a KOSMOS 11K65M launch vehicle from the Plesetsk Missile And Space Complex (PKMTR). Payloads include a variety of satellites, spacecraft, and rockets equipped with specific instruments for various scientific and technological missions. These include communications satellites like Starlink; space stations such as the ISS; scientific satellites like the Hubble; Earth observation satellites from companies like Planet Labs, Umbra, and HawkEye 360; GPS; miniature CubeSats for education and research; and military/defense satellites.

Loading next visibility...
COSMOS 1562 details
Identifier
15001, 1984-052D
Orbit
LEO
Last TLE update1 day ago
Origin
Flag of CISGUKOS (CIS)
ManufacturerNPO PM
MissionDefense Communications
Bus & MotorSTRELA-1 11F625, Unknown motor
Mass60 kg wet, 60 kg dry
Launch date (UTC)
1984-05-28 (41 years ago)
Launch vehicle
KOSMOS 11K65M
Launch site
Plesetsk Missile And Space Complex (PKMTR)
Object type
Payload
Rocket body
Debris
Shape & HBRSphere, 0.8 m
Radar Cross Section0.588 m², Medium (>0.1 m² and < 1m²)

Expand to show TLE details & history

TLE from 1 day ago
0 COSMOS 1562
1 15001U 84052D   25035.64016294 -.00000012  00000-0  27830-4 0  9991
2 15001  74.0098 258.0335 0014968 151.7949 237.9272 12.49955735856615
Epoch: 2025-02-04T15:21Z
Definitive object data (Epoch: 2025-02-04T15:21:50.078Z)
Latitude28.37262°
Longitude-98.60852°
Altitude1,473.941 km
Speed7.126 km/s
True Right ascension17h 47m 34s
True Declination28° 14' 32"
Sunlit
Object was in daylight at TLE epoch
Visualization TLE readout
Latitude36.55879°
Longitude58.90793°
Altitude1,457.569 km
Speed7.142 km/s
Apparent Right ascension05h 28m 07s
Apparent Declination3° 07' 57"
Sunlit
Object is in daylight
Visualization observer readout
Local Sidereal Time18:59:46
Azimuth31.592° NE
Elevation-42.094°
Doppler factor1
Orbital elements
Apogee altitude1,474.253 km
Perigee altitude1,450.781 km
Semi-major axis7,840.654 km
Eccentricity0.0014968
Inclination74.0098°
RAAN258.0335°
Arg. of periapsis151.7949°
True anomaly237.782°
Mean anomaly237.9272°
Eccentric anomaly237.85459°
Mean motion3.12619 °/min
BSTAR0.00002783
Orbital period115.16 mins
Loading maneuver chart data...
Loading historical data...
Loading historical data...
Loading historical data...
Loading historical data...
Loading historical data...
Loading historical data...
Loading historical data...

COSMOS 1562 Visibility forecast

Observer location: undefined°, undefined

Span
Click to sort rows by Start time (UTC) header in descending order
Start Az.
Max El. time (UTC)
Max El. Az.
Max El.
End time (UTC)
End Az.
8 mins2025-02-05 18:19:52.238Z285.849° WNW2025-02-05 18:23:52.238Z314.725° NW14.654°2025-02-05 18:27:52.238Z343.957° N
12 mins2025-02-06 00:27:52.238Z7.413° NNE2025-02-06 00:32:52.238Z52.071° ENE26.29°2025-02-06 00:39:52.238Z111.55° ESE
14 mins2025-02-06 02:24:52.238Z332.034° NNW2025-02-06 02:30:52.238Z273.628° WNW41.71°2025-02-06 02:38:52.238Z179.479° S
16 mins2025-02-06 15:18:52.238Z183.46° SSW2025-02-06 15:26:52.238Z86.924° E42.785°2025-02-06 15:34:52.238Z24.023° NE
|